"Pseudo-MPEC" for P22n0gv

Created 2026 May 8 1:35:07 UT using Find_Orb

Click here for an explanation of pseudo-MPECs

 
 Astrometry: 
     P22n0gv*0C2026 05 07.59800917 29 19.386+49 24 17.86   ~57FZ 21.52wXNEOCPF52
     P22n0gv 0C2026 05 07.60308017 29 17.457+49 24 10.08   ~57FZ 21.45wXNEOCPF52
     P22n0gv 0C2026 05 07.60815417 29 15.534+49 24 02.84   ~57FZ 21.30wXNEOCPF52
     P22n0gv 0C2026 05 07.61324017 29 13.639+49 23 55.20   ~57FZ 21.23wXNEOCPF52

Station data:
(F52) Pan-STARRS 2, Haleakala  (N20.707382 W156.255910)  US/Hawaii.
   Observers J. Herman, T. Lowe, P. Minguez, A. Schultz, I. Smith. Measurers
   K. Chambers, T. de Boer, J. Fairlamb, H. Gao, M. Huber, C.-C. Lin, E.
   Magnier, Y. Ramanjooloo, R. Wainscoat, R. Weryk. 1.8-m Ritchey-Chrétien +
   CCD.

Orbital elements:  P22n0gv
   Perihelion 2026 Jan 2.974111 +/- 65.1 TT = 23:22:43.1 (JD 2461043.474111)
Epoch 2026 May  8.0 TT = JDT 2461168.5   Earth MOID: 0.0458      AutoNEOCP
M 100.180140644 +/- 54              (J2000 ecliptic)
n   0.801275170 +/- 0.444           Peri.   38.642542 +/- 80
a   1.148016840 +/- 0.424           Node    70.418654 +/- 56
e   0.12265729 +/- 0.285            Incl.   44.437501 +/- 20
P   1.230/449.275d         H 20.80  G  0.15   U 12.2  SR
q 1.007204198 +/- 0.283    Q 1.288829483 +/- 18.7
From 4 observations 2026 May 7 (21.9 min); mean residual 0".11
Residuals in arcseconds: 
260507 F52  .08+  .10+    260507 F52  .13-  .09+    
260507 F52  .06-  .19-    260507 F52  .11+  .00     

Ephemerides (geocentric):
Date (UTC) HH   RA             Dec           delta  r     elong  mag " sig PA
---- --------  ------------   ------------  ------ ------ -----  --- --------
2026 05 08 02  17 26 21.328   +49 12 08.98  .40753 1.1891 106.2 21.2  393  99
2026 05 08 03  17 26 05.849   +49 11 05.28  .40720 1.1892 106.2 21.2  424 100
2026 05 08 04  17 25 50.349   +49 10 01.27  .40687 1.1893 106.3 21.2  454 100
2026 05 08 05  17 25 34.829   +49 08 56.94  .40654 1.1893 106.3 21.2  485 101
2026 05 08 06  17 25 19.289   +49 07 52.31  .40620 1.1894 106.4 21.2  515 101
2026 05 08 07  17 25 03.729   +49 06 47.36  .40587 1.1895 106.4 21.2  546 101
2026 05 08 08  17 24 48.149   +49 05 42.10  .40554 1.1896 106.5 21.2  577 101
2026 05 08 09  17 24 32.549   +49 04 36.53  .40521 1.1896 106.5 21.2  608 101
2026 05 08 10  17 24 16.929   +49 03 30.64  .40487 1.1897 106.6 21.2  640 101
2026 05 08 11  17 24 01.289   +49 02 24.43  .40454 1.1898 106.6 21.2  672 101
2026 05 08 12  17 23 45.630   +49 01 17.90  .40421 1.1899 106.7 21.2  705 101
2026 05 08 13  17 23 29.950   +49 00 11.06  .40388 1.1899 106.7 21.2  738 101
2026 05 08 14  17 23 14.251   +48 59 03.90  .40355 1.1900 106.7 21.2  772 100
2026 05 08 15  17 22 58.532   +48 57 56.41  .40322 1.1901 106.8 21.2  808  99
2026 05 08 16  17 22 42.794   +48 56 48.61  .40289 1.1902 106.8 21.2  846  96
2026 05 08 17  17 22 27.035   +48 55 40.48  .40256 1.1902 106.9 21.2  890  92
2026 05 08 18  17 22 11.257   +48 54 32.02  .40223 1.1903 106.9 21.2  958  81
2026 05 08 19  17 21 55.460   +48 53 23.24  .40190 1.1904 107.0 21.2 1287  42
2026 05 08 20  17 21 39.643   +48 52 14.14  .40157 1.1905 107.0 21.2 4820  15
2026 05 08 21  17 21 23.806   +48 51 04.70  .40124 1.1905 107.1 21.2 883' 128
2026 05 08 22  17 21 07.950   +48 49 54.94  .40091 1.1906 107.1 21.2 866' 127
2026 05 08 23  17 20 52.074   +48 48 44.85  .40058 1.1907 107.2 21.2 861' 127
2026 05 09 00  17 20 36.179   +48 47 34.43  .40025 1.1908 107.2 21.2 859' 127
2026 05 09 01  17 20 20.265   +48 46 23.68  .39992 1.1908 107.2 21.2 858' 127
2026 05 09 02  17 20 04.331   +48 45 12.59  .39959 1.1909 107.3 21.2 857' 126
2026 05 09 03  17 19 48.378   +48 44 01.17  .39927 1.1910 107.3 21.2 857' 126
2026 05 09 04  17 19 32.406   +48 42 49.42  .39894 1.1911 107.4 21.2 856' 126
2026 05 09 05  17 19 16.415   +48 41 37.33  .39861 1.1911 107.4 21.2 856' 126
2026 05 09 06  17 19 00.404   +48 40 24.90  .39828 1.1912 107.5 21.2 856' 126
2026 05 09 07  17 18 44.374   +48 39 12.14  .39796 1.1913 107.5 21.2 855' 126
2026 05 09 08  17 18 28.326   +48 37 59.03  .39763 1.1914 107.6 21.1 855' 126
2026 05 09 09  17 18 12.258   +48 36 45.59  .39730 1.1915 107.6 21.1 855' 126
2026 05 09 10  17 17 56.171   +48 35 31.80  .39698 1.1915 107.7 21.1 855' 126
2026 05 09 11  17 17 40.065   +48 34 17.67  .39665 1.1916 107.7 21.1 855' 126
2026 05 09 12  17 17 23.940   +48 33 03.20  .39632 1.1917 107.8 21.1 856' 126
2026 05 09 13  17 17 07.797   +48 31 48.38  .39600 1.1918 107.8 21.1 857' 126
2026 05 09 14  17 16 51.634   +48 30 33.22  .39567 1.1918 107.8 21.1 860' 126
2026 05 09 15  17 16 35.453   +48 29 17.71  .39535 1.1919 107.9 21.1 870' 127
2026 05 09 16  17 16 19.253   +48 28 01.85  .39502 1.1920 107.9 21.1 905' 128
2026 05 09 17  17 16 03.035   +48 26 45.64  .39470 1.1921 108.0 21.1  17d 133
2026 05 09 18  17 15 46.797   +48 25 29.08  .39437 1.1921 108.0 21.1  19d 133
2026 05 09 19  17 15 30.541   +48 24 12.18  .39405 1.1922 108.1 21.1  20d 132
2026 05 09 20  17 15 14.267   +48 22 54.92  .39372 1.1923 108.1 21.1  20d 131
2026 05 09 21  17 14 57.974   +48 21 37.30  .39340 1.1924 108.2 21.1  20d 130
2026 05 09 22  17 14 41.663   +48 20 19.33  .39307 1.1924 108.2 21.1  20d 130
2026 05 09 23  17 14 25.333   +48 19 01.01  .39275 1.1925 108.3 21.1  20d 130
2026 05 10 00  17 14 08.985   +48 17 42.33  .39243 1.1926 108.3 21.1  21d 130
2026 05 10 01  17 13 52.618   +48 16 23.29  .39210 1.1927 108.4 21.1  21d 130